User: anonymous   Login
Location: Unspecified
(0.0000°N, 0.0000°E)
Time: 04:42:06
(UTC+02:00)
Language:

Iridium 4 Rocket - Orbit

View from above orbital plane
View from above orbital plane
View from above satellite
View from above satellite

Ground track
Ground track

The orbit data is extracted from the following two-line orbital elements,

1 24797U 97020F   18169.58423455 +.00000110 +00000-0 +17758-4 0  9992
2 24797 086.8982 219.1630 0225422 175.1023 300.2897 14.44061322110783
Epoch (UTC): 18 June 2018 14:01:17
Eccentricity: 0.0225422
inclination: 86.8982°
perigee height: 584 km
apogee height: 905 km
right ascension of ascending node: 219.1630°
argument of perigee: 175.1023°
revolutions per day: 14.44061322
mean anomaly at epoch: 300.2897°
orbit number at epoch: 11078

The dashed part of the orbit path shows where the satellite is in the earth's shadow,  

DLR